Regional Weather Roundup
Issued by NWS Little Rock, AR

Home | Current Version | Previous Version | Graphics & Text | Print | Product List | Glossary On
Versions: 1 2 3 4 5 6 7 8 9 10 11 12 13 14 15 16 17 18 19 20 21 22 23 24 25 26 27 28 29 30 31 32 33 34 35 36 37 38 39 40 41 42 43 44 45 46 47 48 49 50
000
ASUS44 KLZK 301405
RWRLZK

WEATHER ROUNDUP FOR ARKANSAS
NATIONAL WEATHER SERVICE LITTLE ROCK AR
900 AM CDT TUE JUN 30 2015

NOTE: "FAIR" INDICATES FEW OR NO CLOUDS BELOW 12,000 FEET WITH NO
SIGNIFICANT WEATHER AND/OR OBSTRUCTIONS TO VISIBILITY.

ARZ001-003-010-029-301500-
NORTHWEST ARKANSAS

CITY           SKY/WX    TMP DP  RH WIND       PRES   REMARKS
FAYETTEVILLE   SUNNY     70  67  90 S6        30.03R
FORT SMITH     SUNNY     77  67  71 W8        30.01R
HARRISON       SUNNY     73  66  78 CALM      30.02R
BENTONVILLE    SUNNY     72  64  78 CALM      30.03S
ROGERS         SUNNY     73  66  78 CALM      30.03R
SILOAM SPGS    SUNNY     72  63  73 SW5       30.03R
HIGHFILL       SUNNY     74  69  85 SW3       30.02R
SPRINGDALE     SUNNY     73  66  78 SW5       30.05R
$$

ARZ004-005-016-301500-
NORTH CENTRAL ARKANSAS

CITY           SKY/WX    TMP DP  RH WIND       PRES   REMARKS
BATESVILLE     SUNNY     73  68  83 CALM      29.98R
FLIPPIN        SUNNY     72  64  78 SW3       29.98R
MTN HOME       SUNNY     71  66  84 CALM      29.99R
$$

ARZ040-041-301500-
WEST CENTRAL ARKANSAS

CITY           SKY/WX    TMP DP  RH WIND       PRES   REMARKS
MENA           SUNNY     81  68  65 W6        30.05R
MOUNT IDA      SUNNY     79  69  71 CALM      30.00R
$$

ARZ009-017-025-026-028-301500-
NORTHEAST ARKANSAS

CITY           SKY/WX    TMP DP  RH WIND       PRES   REMARKS
JONESBORO      SUNNY     78  68  71 W5        29.96R
NEWPORT        SUNNY     79  69  71 NW6       29.98R
WALNUT RIDGE   SUNNY     75  66  73 W6        29.96R
BLYTHEVILLE    SUNNY     79  71  76 SW5       29.95R
NW BLYTHEVILLE MOSUNNY   81  70  69 W3        29.95R
$$

ARZ022-023-033-042-044-301500-
CENTRAL ARKANSAS

CITY           SKY/WX    TMP DP  RH WIND       PRES   REMARKS
LITTLE ROCK    MOSUNNY   81  70  69 CALM      29.97S
N LITTLE ROCK  MOSUNNY   79  73  80 NW3       29.97S
JACKSONVILLE   SUNNY     78  70  75 W5        29.97R
SEARCY         SUNNY     77  71  82 VRB3      29.98S
HOT SPRINGS    SUNNY     79  71  76 SW5       30.00R
RUSSELLVILLE   SUNNY     75  69  81 NW3       30.00R
CLINTON        FAIR      72  66  83 W3        30.01R
$$

ARZ036-301500-
EAST ARKANSAS

CITY           SKY/WX    TMP DP  RH WIND       PRES   REMARKS
WEST MEMPHIS   SUNNY     78  74  87 W3        29.95R
$$

ARZ050-053-066-070-073-301500-
SOUTHWEST ARKANSAS

CITY           SKY/WX    TMP DP  RH WIND       PRES   REMARKS
ARKADELPHIA    FAIR      82  75  79 SW8       30.00R HX  88
CAMDEN         SUNNY     82  72  69 NE8       30.00R HX  87
TEXARKANA      SUNNY     81  73  76 W12       30.03R HX  86
EL DORADO      SUNNY     80  73  79 SW12      30.02R
DE QUEEN       SUNNY     79  74  84 CALM      30.00R
$$

ARZ056-057-069-301500-
SOUTHEAST ARKANSAS

CITY           SKY/WX    TMP DP  RH WIND       PRES   REMARKS
PINE BLUFF     SUNNY     80  73  79 SW7       29.98R
STUTTGART      SUNNY     79  73  83 W8        29.98R
MONTICELLO     PTSUNNY   75  73  93 S8        30.02R

$$




USA.gov is the U.S. government's official web portal to all federal, state and local government web resources and services.